Location: Owatonna
(44.0840°N, 93.2260°W)
Time: 10:19:39
(UTC-05:00)

Tiangong 1 - Visible Passes

Search period start: 23 August 2014 00:00
Search period end: 02 September 2014 00:00
Orbit: 369 x 374 km, 42.8° (Epoch: 23 August)

Date Brightness Start Highest point End Pass type
(mag) Time Alt. Az. Time Alt. Az. Time Alt. Az.
23 Aug 2.0 04:58:19 29° SSW 04:58:19 29° SSW 05:00:49 10° SE visible
24 Aug 3.0 05:30:27 13° SSW 05:30:32 13° SSW 05:32:03 10° S visible
28 Aug 3.4 20:58:56 10° SSE 20:59:12 11° SSE 20:59:12 11° SSE visible
29 Aug 2.8 21:29:32 10° SW 21:30:57 20° SSW 21:30:57 20° SSW visible
30 Aug 2.8 20:26:25 10° SSW 20:28:26 16° SSE 20:30:27 10° ESE visible
30 Aug 3.3 22:01:28 10° WSW 22:02:24 18° WSW 22:02:24 18° WSW visible
31 Aug 1.7 20:57:44 10° SW 21:00:34 35° SSE 21:01:39 26° ESE visible
01 Sep 1.1 21:29:47 10° WSW 21:32:39 59° S 21:32:39 59° S visible
